This demonstration page uses our WeatherBlox Daily Observations layout. Learn more.

Left ArrowRight Arrow

40.92945, -100.16068

Hourly Observations for February 19, 2015

Temp ( °F °C ) Dew Point ( °F °C ) Humidity (%) Winds ( mph kmh ) Pressure ( in mb ) Visibility ( mi km ) Precip ( " mm )
12:15 am 00:15 Cloudy 21 -6.3 8 -13.5 57 57 SE 7 11 30.45 1031 10 16 N/A
12:35 am 00:35 Cloudy 20 -6.4 8 -13.6 57 57 SSE 9 15 30.45 1031 10 16 N/A
12:55 am 00:55 Cloudy 20 -6.5 7 -13.7 57 57 ESE 10 17 30.45 1031 10 16 N/A
1:15 am 01:15 Cloudy 20 -6.6 7 -14 56 56 E 9 15 30.45 1031 10 16 N/A
1:35 am 01:35 Cloudy 20 -6.5 7 -13.9 56 56 SSE 9 15 30.45 1031 10 16 N/A
1:55 am 01:55 Cloudy 20 -6.6 7 -14 56 56 SE 8 13 30.45 1031 10 16 N/A
2:15 am 02:15 Cloudy 20 -6.6 7 -14 56 56 SSE 10 17 30.45 1031 10 16 N/A
2:35 am 02:35 Cloudy 20 -6.7 7 -14 56 56 SSE 9 15 30.42 1030 10 16 N/A
2:55 am 02:55 Cloudy 20 -6.6 7 -14 56 56 SSE 12 19 30.42 1030 10 16 N/A
3:15 am 03:15 Cloudy 20 -6.8 8 -13.6 59 59 SE 10 17 30.42 1030 10 16 N/A
3:35 am 03:35 Mostly Cloudy 19 -7.1 7 -13.7 60 60 SE 8 13 30.42 1030 10 16 N/A
3:55 am 03:55 Mostly Cloudy 19 -7.5 8 -13.6 62 62 SE 9 15 30.39 1029 10 16 N/A
4:15 am 04:15 Cloudy 19 -7.5 8 -13.5 63 63 SE 9 15 30.39 1029 10 16 N/A
4:35 am 04:35 Mostly Cloudy 19 -7.5 7 -13.7 62 62 SE 8 13 30.39 1029 10 16 N/A
4:55 am 04:55 Cloudy 19 -7.4 7 -13.8 61 61 SE 12 19 30.36 1028 10 16 N/A
5:15 am 05:15 Cloudy 19 -7.4 7 -13.8 61 61 SE 9 15 30.36 1028 10 16 N/A
5:35 am 05:35 Cloudy 19 -7.5 6 -14.5 58 58 SE 14 22 30.36 1028 10 16 N/A
5:55 am 05:55 Partly Cloudy 18 -7.7 6 -14.3 60 60 SE 14 22 30.36 1028 10 16 N/A
6:15 am 06:15 Cloudy 18 -7.7 6 -14.3 60 60 SE 14 22 30.36 1028 10 16 N/A
6:35 am 06:35 Cloudy 18 -7.7 6 -14.5 59 59 SE 13 20 30.33 1027 10 16 N/A
6:55 am 06:55 Cloudy 18 -7.7 6 -14.7 58 58 SE 10 17 30.33 1027 10 16 N/A
7:15 am 07:15 Partly Cloudy 17 -8.2 6 -14.6 60 60 SE 9 15 30.33 1027 10 16 N/A
7:35 am 07:35 Sunny 17 -8.3 6 -14.5 61 61 SE 10 17 30.33 1027 10 16 N/A
7:55 am 07:55 Sunny 17 -8.2 6 -14.5 61 61 SSE 10 17 30.30 1026 10 16 N/A
8:15 am 08:15 Sunny 18 -7.8 6 -14.4 59 59 SE 12 19 30.33 1027 10 16 N/A
8:35 am 08:35 Sunny 19 -7.4 5 -14.8 56 56 SE 15 24 30.27 1025 10 16 N/A
8:55 am 08:55 Sunny 19 -7.1 5 -14.8 55 55 SE 12 19 30.27 1025 10 16 N/A
9:15 am 09:15 Sunny 20 -6.5 5 -14.8 52 52 SSE 15 24 30.30 1026 10 16 N/A
9:35 am 09:35 Sunny 21 -6.1 5 -14.8 51 51 SSE 14 22 30.30 1026 10 16 N/A
9:55 am 09:55 Sunny 22 -5.4 6 -14.7 48 48 SSE 15 24 30.27 1025 10 16 N/A
10:15 am 10:15 Sunny 23 -4.8 7 -14.1 49 49 SSE 16 26 30.27 1025 10 16 N/A
10:35 am 10:35 Sunny 25 -3.8 7 -14 45 45 SE 15 24 30.24 1024 10 16 N/A
10:55 am 10:55 Sunny 27 -2.8 8 -13.6 44 44 SE 15 24 30.24 1024 10 16 N/A
11:15 am 11:15 Sunny 28 -2.2 8 -13.4 42 42 SSE 17 28 30.24 1024 10 16 N/A
11:35 am 11:35 Partly Cloudy 28 -2.1 8 -13.4 42 42 SSE 18 30 30.24 1024 10 16 N/A
11:55 am 11:55 Mostly Cloudy 29 -1.9 9 -13 43 43 SSE 15 24 30.21 1023 10 16 N/A
12:15 pm 12:15 Partly Cloudy 30 -1.2 9 -12.8 41 41 S 17 28 30.18 1022 10 16 N/A
12:35 pm 12:35 Partly Cloudy 30 -1 10 -12.4 42 42 SSE 16 26 30.15 1021 10 16 N/A
12:55 pm 12:55 Partly Cloudy 30 -0.9 10 -12.4 42 42 S 15 24 30.15 1021 10 16 N/A
1:15 pm 13:15 Sunny 32 0 11 -11.9 41 41 S 15 24 30.15 1021 10 16 N/A
1:35 pm 13:35 Sunny 32 0 11 -11.9 41 41 S 17 28 30.15 1021 10 16 N/A
1:55 pm 13:55 Partly Cloudy 33 0.4 12 -11.3 41 41 S 15 24 30.15 1021 10 16 N/A
2:15 pm 14:15 Sunny 33 0.5 11 -11.6 40 40 S 14 22 30.12 1020 10 16 N/A
2:35 pm 14:35 Sunny 34 1 11 -11.4 39 39 S 13 20 30.12 1020 10 16 N/A
2:55 pm 14:55 Sunny 34 1.1 11 -11.4 39 39 S 15 24 30.09 1019 10 16 N/A
3:15 pm 15:15 Sunny 34 1.3 12 -11.1 40 40 SSE 16 26 30.09 1019 10 16 N/A
3:35 pm 15:35 Sunny 35 1.6 12 -11.1 39 39 SSE 15 24 30.09 1019 10 16 N/A
3:55 pm 15:55 Sunny 36 2 12 -11.2 37 37 SSE 17 28 30.06 1018 10 16 N/A
4:15 pm 16:15 Sunny 36 2.2 12 -11.1 37 37 SSE 15 24 30.06 1018 10 16 N/A
4:35 pm 16:35 Sunny 37 2.6 14 -10 39 39 SSE 15 24 30.06 1018 10 16 N/A
4:55 pm 16:55 Sunny 37 2.9 14 -9.8 39 39 S 15 24 30.06 1018 10 16 N/A
5:15 pm 17:15 Sunny 37 2.5 14 -9.9 40 40 S 13 20 30.06 1018 10 16 N/A
5:35 pm 17:35 Sunny 36 2.3 15 -9.4 42 42 S 12 19 30.06 1018 10 16 N/A
5:55 pm 17:55 Sunny 35 1.7 15 -9.2 45 45 S 8 13 30.06 1018 10 16 N/A
6:15 pm 18:15 Sunny 33 0.6 15 -9.4 47 47 SE 12 19 30.06 1018 10 16 N/A
6:35 pm 18:35 Clear 32 -0.2 13 -10.3 47 47 SE 10 17 30.09 1019 10 16 N/A
6:55 pm 18:55 Clear 31 -0.7 13 -10.7 47 47 SE 10 17 30.09 1019 10 16 N/A
7:15 pm 19:15 Clear 29 -1.5 12 -11 49 49 SE 12 19 30.09 1019 10 16 N/A
7:35 pm 19:35 Clear 28 -2.1 12 -11 51 51 SSE 8 13 30.09 1019 10 16 N/A
7:55 pm 19:55 Clear 28 -2.5 12 -11 52 52 SE 8 13 30.09 1019 10 16 N/A
8:15 pm 20:15 Clear 26 -3.1 12 -11.1 54 54 SE 9 15 30.12 1020 10 16 N/A
8:35 pm 20:35 Clear 26 -3.6 12 -11 57 57 SE 9 15 30.12 1020 10 16 N/A
8:55 pm 20:55 Clear 25 -3.7 12 -11.1 57 57 SE 9 15 30.12 1020 10 16 N/A
9:15 pm 21:15 Clear 25 -4.1 12 -11 59 59 SE 8 13 30.12 1020 10 16 N/A
9:35 pm 21:35 Clear 24 -4.2 12 -11 60 60 SSE 9 15 30.12 1020 10 16 N/A
9:55 pm 21:55 Clear 24 -4.5 12 -11 61 61 SE 8 13 30.12 1020 10 16 N/A
10:15 pm 22:15 Clear 23 -5 13 -10.8 64 64 SE 7 11 30.12 1020 10 16 N/A
10:35 pm 22:35 Clear 23 -5 13 -10.7 65 65 SSE 7 11 30.09 1019 10 16 N/A
10:55 pm 22:55 Clear 22 -5.7 13 -10.7 68 68 SSE 5 7 30.15 1021 10 16 N/A
11:15 pm 23:15 Clear 22 -5.5 13 -10.5 68 68 SSE 3 6 30.09 1019 10 16 N/A
11:35 pm 23:35 Clear 21 -6 13 -10.8 69 69 S 3 6 30.12 1020 10 16 N/A
11:55 pm 23:55 Clear 20 -6.8 13 -10.7 74 74 Calm 30.12 1020 10 16 N/A

Powered by AerisWeather